Location: Arroyo de Fuente Vieja
(40.4902°N, 4.1175°W)
Time: 01:20:19
(UTC+00:00)

Cosmos 2100 Rocket - Pass Details

Date: 18 April 2024
Orbit: 955 x 1000 km, 82.9° (Epoch: 18 May)

Event Time Altitude Azimuth Distance (km) Brightness Sun altitude
Rises 21:46:00 0° 357° (N) 3,725 7.8 -27.8°
Reaches altitude 10° 21:48:39 10° 3° (N) 2,767 6.9 -28.1°
Enters shadow 21:54:15 49° 61° (ENE) 1,251 4.4 -28.8°
